Theta_e
291 293 292 293 291 293 294 293 294 294 294 294 295 296 295 294 294 295 291 294 292 294 294 295 295 295 295 295 295 296 296 296 297 299 300 300 301 301 299 298 299 299 298 298 297 297 297 297 297 297 297 295 295 294 293 292 291 290 290 289 288 288 288 288 288 289 282 280 283 282 283 283 282 283 282 281 281 283 283 282 282 283 283 282 283
291 293 291 292 292 293 293 291 292 291 292 292 292 293 292 293 293 289 291 294 291 294 294 294 293 294 294 295 295 295 295 297 295 296 297 297 297 299 299 297 297 297 297 297 297 297 296 296 296 296 296 295 294 293 292 291 290 289 289 288 288 288 288 287 288 288 289 280 280 282 281 283 281 283 282 281 281 282 281 281 282 282 282 282 281
290 290 291 291 291 290 289 289 288 288 289 290 290 291 290 289 288 290 291 291 289 292 293 292 293 293 293 293 294 294 294 294 293 293 294 296 296 297 298 297 297 297 297 297 297 297 296 295 296 296 296 294 294 293 292 291 290 289 289 289 288 289 289 288 288 287 287 282 280 280 280 282 281 281 282 282 282 282 281 281 281 282 282 282 281
287 287 288 289 288 287 287 287 287 287 288 289 289 289 289 289 287 289 290 289 290 290 290 292 291 291 292 292 292 293 293 292 292 292 294 295 296 296 296 296 296 297 297 297 297 296 296 295 295 295 295 294 293 293 292 291 290 289 289 289 288 288 289 287 287 288 287 281 281 280 281 281 280 282 282 282 281 281 281 281 282 281 281 281 281
287 287 286 287 287 286 286 286 286 287 288 288 288 288 288 288 287 289 289 289 290 290 290 289 290 291 292 292 293 293 293 293 292 292 293 294 295 295 296 296 296 296 296 297 295 297 296 296 296 295 294 293 293 292 292 290 290 290 289 289 288 288 288 287 286 286 284 283 281 280 281 280 280 281 282 280 280 279 280 280 280 280 280 281 281
286 286 286 286 288 286 286 286 286 287 287 287 288 288 287 287 288 288 288 290 290 289 290 289 289 291 291 292 293 293 292 292 292 293 293 293 293 294 294 295 295 296 296 296 296 296 296 296 296 295 295 294 293 293 292 291 290 289 289 289 288 288 287 286 286 285 285 283 281 279 280 279 279 280 281 281 279 278 278 278 278 279 279 278 279
288 287 287 286 287 288 287 287 286 286 286 287 287 286 287 287 287 288 288 288 289 289 289 290 289 290 291 292 292 292 293 292 292 292 293 293 293 293 293 294 294 294 295 295 296 296 296 296 296 295 295 295 294 293 293 291 291 289 289 289 289 287 286 286 285 284 284 282 281 280 280 280 280 278 279 281 281 280 278 277 276 278 278 278 278
289 288 287 287 287 288 287 287 287 287 287 287 287 286 286 286 287 287 286 287 288 288 289 290 290 289 290 291 291 291 291 292 292 292 292 292 292 292 292 293 294 294 294 294 294 295 295 295 295 296 295 295 294 294 293 292 291 290 290 289 288 287 286 285 284 284 283 282 281 279 280 279 278 278 278 279 279 279 280 279 278 277 275 277 278
288 288 287 288 288 287 287 287 286 287 287 287 287 287 287 287 287 287 286 287 287 288 288 289 289 290 290 290 290 290 291 292 292 292 292 292 292 292 292 292 292 293 293 294 294 294 294 294 295 295 294 291 292 292 293 293 292 290 289 289 288 287 286 285 283 283 283 282 281 280 279 279 278 277 277 278 279 280 279 280 280 279 277 276 277
286 287 287 288 288 287 287 286 286 285 286 286 287 287 287 287 287 287 287 287 287 287 287 288 288 289 290 290 290 290 291 292 291 292 293 293 292 292 292 292 292 292 293 293 293 293 293 294 294 290 290 290 290 291 292 292 292 292 291 289 288 286 285 284 283 283 283 282 281 280 279 278 278 279 279 280 282 280 278 278 278 277 277 277 277
286 286 287 287 286 286 286 287 286 287 287 286 286 286 287 286 286 286 286 287 287 287 286 287 288 288 289 289 290 290 291 292 292 294 295 295 293 292 292 292 292 292 292 292 292 292 292 292 293 291 289 289 289 290 291 291 291 291 291 290 289 287 286 284 284 283 283 282 282 280 280 279 279 280 280 280 280 279 278 278 278 276 275 275 274
285 286 285 286 286 286 285 286 286 287 287 287 287 286 286 286 286 286 286 286 286 285 286 287 287 287 288 288 289 290 291 291 293 294 294 295 294 292 292 292 292 292 293 293 293 293 292 292 292 292 292 291 291 290 290 290 290 291 290 290 289 289 289 287 285 283 283 282 281 280 281 280 280 280 280 279 278 278 278 278 277 276 276 275 276
285 286 286 285 286 285 285 285 286 286 286 286 286 286 286 286 286 286 287 287 285 285 286 286 287 287 287 287 288 289 289 291 293 294 294 294 294 293 292 292 291 291 292 292 292 292 292 291 292 292 292 288 288 289 289 288 288 289 289 289 288 289 289 290 289 286 285 284 282 281 282 282 280 280 281 280 280 278 278 277 277 277 277 277 277
285 285 285 285 285 285 284 285 285 285 285 285 285 285 285 286 286 286 286 286 286 286 286 286 287 286 287 287 288 288 289 290 293 293 293 294 294 294 292 291 291 291 292 292 292 292 291 291 291 291 291 289 288 288 287 287 287 286 287 287 286 286 287 288 288 287 286 285 284 282 283 284 282 281 282 282 279 278 277 276 277 277 277 277 278
284 285 285 285 285 285 285 285 285 285 285 284 284 284 285 285 285 286 286 286 286 287 287 287 287 287 287 287 287 288 289 291 292 292 293 293 294 294 292 291 291 291 291 292 292 292 292 291 291 291 290 289 288 287 286 286 286 286 286 285 285 285 285 285 285 285 285 285 285 285 284 284 285 283 282 282 281 281 280 279 278 278 278 277 277
285 286 286 286 286 286 286 285 285 285 286 285 285 286 286 285 286 286 285 285 286 285 286 286 286 287 287 287 287 287 289 291 291 292 292 293 294 291 290 290 290 290 290 291 291 291 291 291 290 290 289 288 287 288 287 286 285 285 285 285 284 284 284 285 287 286 285 285 286 286 285 285 285 283 282 282 281 281 280 279 278 277 276 275 274
286 286 286 286 286 286 285 285 285 285 285 285 285 286 286 286 286 284 285 286 285 286 286 286 286 286 287 287 286 287 288 289 291 291 292 293 292 290 289 289 289 289 290 290 291 290 290 290 289 289 288 288 288 289 289 287 285 285 284 283 283 282 282 284 286 286 287 287 287 287 287 287 287 286 286 285 282 281 278 276 275 276 275 273 273
285 285 286 286 285 285 285 284 284 284 284 284 285 285 286 286 285 285 284 286 286 287 286 286 287 286 286 286 287 287 287 288 290 291 291 292 291 289 288 288 288 288 288 289 289 290 289 288 288 288 288 287 288 289 289 287 284 284 283 282 281 281 281 283 283 284 286 286 286 286 286 287 287 287 286 286 284 282 278 276 276 276 275 275 274
285 285 285 285 285 284 284 284 283 283 284 284 284 284 285 285 285 285 285 284 285 286 286 286 286 287 286 286 286 286 287 287 289 290 291 291 290 288 288 288 287 288 288 288 289 289 289 287 287 287 287 287 289 289 289 287 284 284 283 282 280 280 281 282 281 281 282 282 283 284 284 285 285 284 284 285 284 282 281 279 277 277 276 276 274
285 285 285 285 284 284 284 283 283 283 283 284 284 284 284 284 285 285 285 285 285 285 285 285 285 286 286 286 286 286 286 286 287 289 290 290 291 288 287 287 287 287 287 288 288 288 288 287 286 288 289 289 289 288 288 288 285 284 283 282 281 280 282 282 282 282 281 281 281 282 282 283 283 282 282 282 282 280 280 279 279 279 277 276 274
284 284 284 284 284 284 284 283 283 283 283 283 284 284 284 283 284 284 284 284 284 284 284 285 284 285 286 286 285 285 285 285 286 288 289 290 290 290 287 287 287 287 287 287 287 287 287 286 284 287 288 289 288 288 288 288 287 284 283 282 283 283 284 281 282 282 281 281 281 281 281 281 281 281 281 281 280 280 280 280 279 280 278 275 274
283 283 283 283 283 282 282 283 283 283 283 283 282 283 283 283 282 283 283 283 282 282 283 283 284 284 285 285 285 285 284 284 284 286 288 289 289 290 288 287 287 287 286 286 287 287 287 286 284 285 287 288 288 287 288 288 287 284 284 286 286 286 283 282 282 281 281 280 280 279 279 279 279 279 280 280 280 279 279 279 279 279 279 277 276
282 282 282 281 281 281 282 282 282 282 282 282 281 281 282 282 282 282 281 281 281 281 282 282 282 283 283 284 285 284 284 283 284 284 286 288 289 289 290 288 289 288 286 286 287 287 287 286 284 284 286 287 287 287 288 288 287 285 286 287 286 286 284 282 282 281 280 280 279 278 278 279 278 278 279 279 280 279 279 279 279 278 277 277 277
281 280 281 280 281 281 281 281 281 281 281 281 281 281 281 281 281 282 281 280 281 281 282 282 282 282 282 283 284 285 283 281 282 283 283 285 287 289 289 290 290 287 287 286 287 287 287 285 283 285 285 286 287 287 287 287 286 287 287 287 286 285 283 281 281 280 280 279 278 278 278 278 278 278 278 279 278 279 278 278 277 276 274 273 273
279 279 279 279 280 280 280 281 281 281 281 280 280 281 280 281 281 281 281 280 280 280 281 281 281 281 282 282 283 284 284 280 279 280 283 284 286 287 288 289 289 290 287 287 286 286 286 286 285 285 285 286 287 287 287 287 287 287 286 286 285 284 282 281 280 280 279 278 278 278 278 278 279 279 279 278 276 275 273 272 272 271 269 269 268
278 278 278 279 279 279 279 279 280 280 280 281 280 280 280 280 280 280 280 280 280 280 280 281 281 281 281 282 282 283 283 282 280 278 279 281 282 284 286 286 286 287 287 287 287 287 287 286 286 285 285 285 285 285 284 285 286 286 286 285 285 284 282 281 280 279 278 278 278 278 278 278 278 278 278 276 275 273 272 270 269 269 269 269 267
278 278 278 278 278 278 278 278 279 279 280 280 280 280 280 280 279 279 280 280 280 280 280 280 281 281 281 281 282 282 282 282 281 277 275 277 279 280 281 282 284 285 285 285 286 286 285 284 284 284 284 285 285 285 284 285 285 285 285 285 285 283 282 281 280 279 279 278 278 278 278 277 277 276 275 275 274 273 273 271 270 269 270 270 267
278 278 277 278 278 278 278 278 278 278 278 279 279 279 280 280 279 279 280 280 280 280 280 281 281 281 281 282 282 282 282 282 282 278 276 277 278 279 280 280 281 282 283 285 285 283 282 283 283 283 283 283 284 283 284 284 284 284 284 285 284 283 282 282 282 281 280 280 279 278 276 276 276 275 275 275 274 273 273 272 270 269 270 269 267
276 276 276 276 276 277 277 277 277 277 276 277 278 279 279 279 280 280 281 282 281 280 280 281 282 282 282 281 281 281 282 282 282 283 280 283 281 279 279 281 282 283 284 286 282 281 281 281 281 281 281 281 281 282 282 283 283 284 284 284 284 282 281 281 280 280 280 279 278 276 276 276 275 275 275 274 272 272 273 272 271 269 269 270 269
274 274 275 276 276 275 275 275 275 275 275 276 276 277 279 281 281 280 280 282 283 285 285 282 282 283 282 283 283 282 282 283 286 286 286 286 286 285 285 285 285 285 285 286 284 280 280 279 280 280 280 280 280 280 281 282 282 282 283 283 282 281 281 281 280 280 279 279 278 276 276 275 274 274 274 273 271 272 272 272 269 269 269 269 268
272 272 272 271 272 271 271 272 273 274 275 275 275 276 276 278 281 283 283 283 284 284 285 285 286 286 284 283 284 286 286 286 286 286 286 286 286 286 285 286 286 286 286 284 281 280 279 279 279 279 279 280 280 280 281 281 282 282 283 282 281 281 281 280 280 279 279 278 277 276 276 275 274 274 273 271 270 270 270 270 269 269 269 269 268
269 269 269 269 269 269 270 271 271 272 273 275 275 275 276 276 277 280 282 283 284 285 285 285 286 286 286 286 284 284 285 286 286 286 286 286 286 286 286 286 286 286 286 286 280 280 279 279 278 279 279 279 280 280 281 281 282 283 283 281 280 280 280 279 279 279 278 277 276 275 275 274 274 273 272 271 270 269 268 267 268 268 268 268 268
267 267 267 267 268 268 269 269 270 271 272 273 273 274 274 274 275 276 279 282 283 284 284 285 285 286 286 286 286 286 285 286 286 286 286 286 286 285 285 286 286 286 286 284 281 280 279 279 279 279 279 279 280 281 281 281 282 283 282 280 280 280 280 280 279 278 277 276 276 275 274 274 273 272 271 270 269 268 267 267 268 268 267 266 264
266 266 266 266 267 267 268 269 269 270 270 271 272 273 274 275 276 276 276 277 279 282 284 285 285 285 286 286 286 286 286 286 286 286 286 285 285 285 285 284 286 286 285 283 281 280 279 279 279 279 279 280 280 281 281 281 282 282 281 280 280 279 278 278 278 277 276 276 275 274 273 273 272 271 270 269 269 268 267 267 267 266 265 266 265
263 264 266 266 266 266 267 267 268 268 269 270 271 272 272 273 275 275 276 276 277 278 279 281 284 285 284 285 285 286 286 286 286 286 286 286 285 285 285 283 282 282 283 283 282 280 279 279 278 279 279 279 280 281 281 282 282 281 280 279 278 277 277 277 277 276 275 275 274 273 273 272 272 271 270 269 268 267 267 266 266 266 266 265 264
262 262 262 263 264 265 265 266 267 267 268 269 270 271 272 273 274 276 277 278 278 278 279 281 282 283 284 284 285 285 285 285 285 285 285 285 285 285 281 280 281 281 281 282 281 280 280 279 279 279 279 279 280 281 281 280 280 280 279 277 276 276 276 276 275 275 274 274 273 272 272 271 271 270 270 269 268 268 267 266 266 265 265 264 264
260 261 261 262 263 264 265 266 266 268 269 270 270 271 272 273 275 276 277 278 278 279 280 280 281 282 283 282 283 283 284 284 285 285 285 285 285 284 282 281 280 281 281 281 281 280 279 279 279 279 279 279 280 280 279 278 278 278 277 277 276 276 276 275 275 274 273 272 272 272 271 271 270 270 269 268 267 267 266 266 265 264 263 263 262
260 261 261 262 263 264 264 265 266 268 269 270 271 271 272 273 275 276 277 277 278 278 278 279 280 280 280 281 283 282 282 283 284 284 284 284 283 282 282 281 281 280 281 281 280 279 279 279 279 279 279 279 279 278 277 277 276 276 275 275 275 275 275 274 274 274 273 272 271 271 271 270 270 269 269 268 267 266 265 265 264 263 262 262 262
260 262 263 263 264 264 265 265 266 267 268 269 270 271 272 272 274 275 276 277 277 278 278 279 279 279 280 281 281 282 281 280 280 280 281 281 282 282 281 281 281 280 281 280 279 279 278 277 277 277 277 277 277 276 276 275 275 275 274 274 274 274 274 273 272 272 271 271 271 271 270 269 269 269 268 268 266 266 265 264 263 263 262 261 261
260 260 262 263 263 264 265 266 266 266 267 268 269 270 271 272 273 273 274 276 276 277 278 278 279 279 280 280 280 280 279 279 279 280 280 280 280 280 281 280 280 279 278 278 278 277 276 276 276 276 275 275 276 275 275 275 274 274 274 274 273 273 272 272 271 271 271 270 270 269 269 269 269 268 268 267 266 266 264 263 262 262 261 260 259
260 260 262 262 263 263 264 264 265 266 267 268 269 270 270 271 272 274 275 275 276 277 278 278 278 279 279 279 280 281 279 279 279 279 279 279 278 277 277 277 277 276 277 277 276 276 275 275 275 275 275 275 275 274 274 274 273 273 273 272 272 272 271 271 271 270 269 269 269 268 268 268 268 268 267 266 267 266 264 263 262 261 260 260 259
259 260 260 261 262 263 263 264 265 266 267 268 268 269 271 272 273 274 275 275 276 276 277 277 278 278 278 280 280 280 280 277 276 276 275 275 275 274 274 275 276 276 276 276 275 275 275 274 274 274 274 274 273 273 273 273 272 272 272 271 271 270 269 269 269 269 268 268 268 267 267 266 266 266 266 267 265 264 263 263 262 261 260 259 258
260 260 261 262 262 263 263 264 265 265 266 267 269 271 272 272 273 273 274 275 275 276 276 276 276 276 276 279 280 279 275 274 272 273 272 272 271 271 270 271 272 273 274 274 275 275 274 274 274 274 273 273 273 273 273 272 272 272 271 270 270 269 268 267 267 267 267 267 266 265 265 266 266 265 265 264 264 263 262 261 259 259 259 258 257
260 261 261 262 263 263 264 264 265 266 268 269 270 271 271 272 273 273 274 275 275 275 275 275 275 275 274 274 274 273 272 271 270 270 269 268 268 267 268 268 269 270 270 271 272 272 272 271 269 269 269 270 271 271 272 272 272 271 270 269 268 267 267 267 267 266 266 265 265 264 264 264 264 264 263 262 262 261 260 259 259 258 257 257 257
260 261 261 262 263 263 264 265 267 268 269 269 269 270 271 272 272 273 273 273 273 273 273 273 272 272 272 271 270 270 269 268 267 267 267 266 265 265 266 266 267 267 268 268 268 269 269 268 267 266 265 266 266 267 268 269 270 270 270 269 267 266 266 266 266 266 265 264 263 263 263 263 263 263 262 261 261 261 259 259 258 256 256 255 256
261 261 262 262 263 264 265 266 267 267 267 268 268 269 270 271 271 270 270 271 271 271 271 270 269 269 269 269 268 267 267 266 265 264 264 263 263 263 263 263 264 264 265 265 266 267 267 266 265 265 264 264 263 263 264 264 265 266 267 268 267 267 266 265 265 264 264 264 263 263 262 262 262 261 259 260 260 260 259 257 257 257 256 255 255
261 261 262 263 263 264 264 265 265 265 266 266 267 267 267 267 268 268 268 268 269 268 268 268 267 267 266 266 265 264 264 263 262 262 262 262 262 262 262 262 262 262 263 263 264 265 264 264 264 264 263 263 263 262 262 262 262 261 261 262 262 262 262 263 264 264 264 263 263 262 262 260 259 258 257 257 257 257 256 256 256 255 254 254 253
260 261 261 262 262 262 263 263 263 264 265 265 265 266 266 266 266 266 266 266 266 266 265 265 264 264 263 263 263 263 262 261 261 261 261 261 261 261 261 261 261 261 261 261 261 262 263 263 263 263 262 262 261 261 261 261 261 259 258 258 259 259 259 259 260 260 261 261 262 261 260 259 258 257 256 256 256 256 255 254 252 251 252 252 251
260 260 260 261 261 261 261 261 261 262 262 263 263 264 264 264 264 264 264 264 264 263 263 263 262 262 262 262 262 261 261 260 260 260 260 260 260 260 260 260 260 259 259 259 260 260 260 261 261 261 261 261 260 259 259 259 259 258 258 257 258 258 257 257 258 258 258 258 258 259 258 257 256 255 255 255 255 255 254 252 252 252 250 250 251
259 259 259 260 260 260 260 260 260 261 261 261 261 262 262 262 262 262 262 262 262 262 262 261 261 261 261 261 261 260 260 259 259 259 259 260 260 260 260 260 259 259 258 258 258 258 258 258 258 257 258 257 258 257 257 257 258 259 259 260 260 258 257 257 256 256 257 257 257 257 257 256 255 255 255 254 254 253 253 252 251 251 251 250 250
258 258 259 259 259 259 259 259 259 259 259 260 260 260 260 260 261 260 260 260 260 260 260 260 260 260 260 260 260 260 259 259 259 259 259 259 259 259 258 258 257 257 257 256 257 256 256 256 256 256 256 256 256 256 256 257 259 260 261 260 259 258 257 257 256 256 256 256 256 256 256 255 254 254 253 253 253 253 252 251 250 250 250 250 250
Wind_Speed
4 4 4 4 4 6 6 4 5 5 5 5 6 7 5 5 6 6 4 6 4 6 6 7 7 7 7 8 8 8 8 8 7 7 8 9 9 9 7 8 10 9 9 10 10 11 12 14 13 13 12 12 11 11 10 11 10 10 10 9 11 9 10 11 13 16 3 0 2 5 6 9 9 11 11 10 9 10 8 7 8 8 7 6 5
4 4 4 4 5 6 5 4 4 4 5 5 6 7 5 6 6 4 5 6 5 7 7 7 6 7 7 8 8 8 8 9 7 7 9 9 9 8 9 9 9 10 9 11 10 10 11 12 13 12 11 12 10 11 11 10 10 11 11 12 12 13 12 12 15 14 14 3 2 3 6 8 8 8 11 11 9 9 10 8 6 6 6 5 5
3 3 4 4 5 5 4 4 4 4 5 5 6 7 6 5 4 5 6 6 5 6 7 7 7 7 8 8 8 8 9 9 7 8 9 10 10 9 9 9 11 11 11 12 12 10 11 12 13 11 10 12 12 12 10 12 11 12 14 12 14 14 12 13 12 13 14 6 4 6 6 6 6 8 9 7 7 8 9 8 7 5 4 5 4
4 4 4 5 4 4 4 4 4 4 5 6 6 6 5 5 4 5 7 5 7 7 6 7 6 7 8 8 9 9 9 8 8 8 11 11 11 11 10 10 11 11 12 13 12 11 12 12 12 12 11 13 12 11 11 11 11 12 13 12 13 15 12 11 13 12 7 7 4 6 5 7 2 6 6 5 7 6 6 5 5 6 5 4 4
2 3 3 4 4 4 4 4 4 5 6 5 7 6 5 5 4 6 6 7 7 7 6 5 6 7 8 9 10 9 10 9 9 9 10 10 11 11 11 11 11 12 12 12 12 12 12 13 12 11 11 13 12 11 11 13 13 12 13 12 12 13 10 10 11 9 7 7 5 2 5 4 4 6 8 10 7 6 5 6 6 6 5 4 3
3 3 3 4 4 4 4 4 4 5 5 5 6 6 5 5 6 6 6 8 7 6 6 5 6 8 8 10 10 9 8 8 9 10 11 10 10 10 10 11 11 11 12 12 12 11 12 13 12 11 12 14 14 13 12 14 13 13 14 13 12 11 11 10 9 10 9 8 9 6 5 7 4 6 7 8 9 7 5 5 4 4 5 4 3
5 5 5 5 6 6 5 5 4 5 5 5 5 5 5 5 6 7 6 6 7 7 6 7 7 8 10 9 9 10 9 8 9 10 11 10 10 11 11 11 11 11 11 12 11 11 12 12 12 12 14 14 14 14 14 14 13 15 15 14 13 11 11 11 10 10 10 8 5 8 9 5 8 8 5 6 6 8 8 6 3 3 2 5 5
8 7 7 7 6 7 6 5 6 6 5 5 5 5 5 5 6 6 5 6 7 7 8 8 8 7 9 8 9 8 8 8 9 10 10 11 11 11 11 12 12 12 12 12 12 12 12 12 13 13 14 14 14 14 13 14 12 14 13 12 11 11 12 11 10 10 10 9 9 9 7 10 6 4 6 8 7 2 5 7 9 7 6 5 6
8 8 7 7 7 6 6 5 5 5 5 6 6 6 6 6 6 6 5 6 6 7 6 7 8 9 8 9 9 8 9 10 9 10 11 12 11 12 12 12 12 12 12 12 12 12 12 12 13 13 14 17 19 17 16 15 12 13 12 11 12 12 11 8 8 10 9 10 8 7 9 9 9 12 9 9 11 13 11 8 7 6 6 6 3
7 8 8 8 7 7 6 6 6 5 5 5 6 6 6 6 6 6 6 6 6 6 7 7 8 9 10 9 9 9 10 9 11 17 16 12 10 11 11 12 12 12 12 12 12 12 13 12 13 17 18 19 19 20 20 20 20 16 13 12 13 12 11 11 12 12 12 12 12 12 12 12 11 12 12 12 11 7 9 9 10 7 7 4 1
6 5 6 6 6 6 7 7 7 8 6 6 5 6 6 6 6 7 7 7 7 6 7 8 8 9 10 10 10 10 10 10 15 17 19 20 14 11 12 12 11 12 12 13 13 12 12 12 12 13 15 16 16 19 20 21 21 21 21 16 14 15 13 14 14 12 12 13 11 11 12 12 12 12 13 11 9 12 12 10 9 8 10 10 9
5 5 5 5 5 6 6 6 7 7 7 7 7 7 6 6 7 7 7 7 7 5 7 9 9 8 8 9 10 11 11 13 16 18 18 19 17 13 12 12 12 12 12 13 13 12 12 11 11 11 11 13 12 13 16 20 21 20 19 17 17 20 19 17 15 12 11 10 10 13 13 14 13 12 10 9 9 7 7 9 10 11 10 10 8
5 5 6 5 6 6 6 6 7 7 7 7 7 7 7 7 8 7 8 7 5 6 8 7 9 8 8 10 11 11 11 14 16 18 17 19 19 17 12 13 12 13 13 13 13 12 11 11 12 11 10 15 14 12 11 12 15 17 17 18 18 21 22 20 17 15 15 13 14 14 16 14 15 13 12 13 11 12 10 9 9 9 9 9 8
5 5 5 5 5 5 5 5 6 6 6 6 6 6 6 7 7 7 7 6 6 8 8 9 9 8 8 10 11 11 12 13 15 17 17 19 19 17 13 13 13 14 14 13 12 12 12 12 12 12 10 9 10 11 10 10 9 10 12 12 12 15 20 22 19 14 13 15 16 17 12 10 12 12 12 12 14 13 12 11 10 10 11 10 6
5 5 5 5 4 5 5 5 6 6 5 5 5 5 6 7 6 6 7 7 7 9 9 9 9 8 9 9 10 13 12 14 15 17 17 18 19 17 13 12 12 14 13 13 13 13 12 12 12 13 11 10 9 11 11 10 10 11 12 13 12 12 12 13 13 12 13 11 12 11 11 10 11 13 13 13 15 14 15 15 16 12 7 8 6
5 6 8 9 9 9 9 10 10 9 9 9 8 9 8 7 8 8 6 7 6 7 8 7 10 11 10 9 10 14 14 13 15 17 17 18 19 12 11 12 13 13 14 13 12 12 12 12 12 12 11 11 11 16 15 10 10 12 13 12 11 10 11 11 13 11 11 11 11 12 12 12 10 11 13 13 10 7 8 7 7 8 9 8 7
9 9 9 10 11 10 10 11 11 11 10 11 12 11 11 12 9 5 8 8 7 8 8 8 8 9 10 9 11 13 14 12 14 17 16 18 14 11 11 11 12 13 14 12 12 12 12 12 11 12 11 11 11 16 18 15 11 13 12 12 10 9 8 7 13 15 14 11 10 10 12 16 17 18 19 19 13 12 10 10 9 10 10 9 6
8 9 10 10 10 10 10 9 11 11 11 11 12 12 10 8 8 6 7 11 12 10 8 10 9 7 9 11 10 12 15 12 12 15 16 17 15 11 10 10 13 13 13 12 11 11 12 16 14 12 11 10 12 17 18 16 12 12 12 11 11 10 8 7 7 8 13 14 15 16 18 18 19 21 22 23 22 17 14 15 13 11 10 10 9
9 10 11 10 9 9 8 9 9 10 11 11 10 11 11 10 10 8 8 7 10 10 9 9 11 10 8 10 13 13 14 15 13 14 16 16 14 10 10 10 13 13 11 12 11 10 11 11 16 14 12 12 17 17 20 17 12 12 12 12 13 13 12 12 12 11 10 10 9 11 11 15 13 12 15 25 23 16 10 9 12 12 11 9 8
8 8 8 9 8 9 8 9 9 8 10 11 10 9 8 9 10 9 10 8 9 10 10 9 11 13 11 9 11 11 12 13 12 13 16 16 17 12 9 11 13 14 11 12 12 11 10 10 11 18 20 20 17 19 20 22 15 11 12 14 15 16 11 13 16 14 13 12 11 11 11 10 10 10 11 13 13 11 7 9 11 11 10 10 9
8 8 8 9 10 10 8 7 10 11 8 9 10 11 8 8 10 10 10 10 10 11 12 11 11 13 12 11 10 12 10 12 14 14 15 17 17 16 11 13 13 11 12 12 12 12 10 8 7 13 18 19 18 19 21 22 20 14 15 15 16 13 15 14 14 15 12 12 11 10 9 9 9 9 10 10 9 8 7 6 8 7 9 10 9
8 8 9 9 9 9 10 10 8 9 9 9 10 12 10 7 8 9 9 9 11 13 12 11 11 12 13 12 11 12 11 12 12 13 15 17 17 19 13 13 13 11 13 13 12 11 10 7 7 10 17 19 19 20 22 23 25 15 16 16 15 18 16 12 11 11 11 11 10 10 10 10 9 9 9 9 9 9 7 7 6 5 4 7 10
8 8 9 9 9 10 9 10 10 8 9 9 10 12 12 10 10 9 9 10 11 13 12 12 11 12 13 13 11 11 10 9 13 13 13 17 19 19 21 17 18 13 13 15 14 11 9 8 7 11 16 17 19 21 22 24 23 16 18 21 19 20 17 11 11 11 10 10 10 10 10 9 10 9 9 9 8 9 7 6 6 6 6 5 5
9 10 10 10 11 11 11 11 10 9 9 10 10 11 12 11 10 9 8 8 10 11 12 11 10 11 13 14 13 11 8 8 9 13 12 15 18 20 21 22 21 14 13 14 13 10 9 7 7 14 17 19 20 21 22 23 16 21 22 24 21 19 13 11 11 11 11 10 11 11 11 9 9 9 9 9 8 9 8 7 7 7 8 8 8
11 11 12 11 11 11 11 12 11 10 10 8 10 11 12 11 11 11 9 9 9 10 11 11 11 12 12 13 14 13 11 7 8 9 13 13 17 19 21 22 21 22 16 14 12 11 10 11 14 16 16 18 20 21 21 25 29 25 24 24 20 12 13 13 13 12 12 13 12 11 10 10 11 9 8 9 9 9 9 8 8 8 9 10 9
13 13 12 12 13 13 13 14 13 11 11 9 9 9 10 10 11 12 11 10 10 10 11 11 12 12 12 13 13 14 13 10 9 8 6 10 12 17 21 21 21 20 19 16 17 16 15 14 15 16 17 16 14 12 11 12 21 23 22 21 14 11 12 12 13 14 13 12 11 11 10 9 7 8 10 10 10 9 12 11 10 7 6 8 7
12 12 11 12 13 12 12 11 12 13 12 10 9 9 9 9 10 11 11 11 11 10 11 11 12 12 13 13 13 13 13 12 10 7 6 7 8 10 10 11 14 15 13 12 13 12 11 11 11 14 11 17 17 15 13 12 12 14 13 14 13 11 13 12 13 13 11 10 9 8 8 8 9 10 10 10 9 8 9 10 9 8 8 8 11
11 13 14 12 10 10 11 14 14 12 13 12 12 12 11 9 9 11 13 12 11 12 12 12 13 13 12 12 13 12 13 13 11 7 7 8 8 8 8 8 8 7 9 9 9 8 7 9 11 8 8 8 10 8 9 9 10 10 11 12 12 10 11 12 10 9 9 9 9 9 9 10 11 10 9 9 9 8 9 9 11 11 8 9 8
12 14 12 11 10 10 9 10 10 12 13 14 12 11 11 12 12 14 14 11 10 11 13 14 14 13 10 12 13 13 14 15 11 4 9 11 10 8 8 8 8 8 9 12 5 4 4 6 6 8 8 9 9 10 9 9 9 10 12 11 11 11 11 11 12 10 9 10 10 11 11 10 10 9 9 9 9 9 7 8 9 12 7 7 8
13 11 10 9 9 10 8 10 9 10 11 12 14 15 16 18 15 13 16 20 20 19 17 15 16 13 12 13 12 12 14 16 17 18 18 16 18 18 17 15 13 11 11 15 9 7 8 8 9 8 9 9 10 10 10 9 9 10 10 10 10 11 11 10 9 9 10 11 11 11 11 10 10 10 10 10 9 7 8 10 8 9 9 7 8
12 11 12 12 13 14 13 12 11 10 10 11 10 12 15 17 20 23 22 22 25 26 22 25 27 26 18 16 17 22 22 25 27 24 21 21 18 18 19 19 19 18 16 8 8 9 8 8 8 9 9 9 10 10 10 10 10 10 9 8 9 10 12 10 10 10 10 10 10 10 11 11 11 10 11 11 11 9 7 6 8 8 8 8 8
11 12 12 13 14 14 12 12 13 13 11 10 10 12 12 15 19 21 21 17 20 25 25 22 22 23 24 22 19 16 20 21 22 24 22 20 19 17 17 19 19 19 19 16 11 10 9 10 9 10 9 10 10 9 10 10 10 9 9 8 9 8 10 10 10 11 10 10 10 10 10 10 10 10 10 11 11 10 9 8 7 7 6 6 7
11 13 13 14 13 15 13 12 13 13 12 12 12 12 14 14 16 18 22 18 17 21 25 26 22 21 23 23 24 22 23 23 24 23 22 20 18 17 16 19 19 19 20 14 11 10 10 10 10 9 9 10 9 9 9 9 10 9 9 10 9 8 8 9 12 10 9 10 11 10 10 10 10 10 10 10 11 11 10 9 7 7 7 7 5
13 12 12 13 14 13 13 12 12 13 13 14 14 14 14 13 13 14 16 18 17 12 15 19 20 21 21 22 23 23 23 24 24 24 23 21 18 16 16 14 18 20 18 13 11 10 9 9 8 8 8 8 7 7 8 8 8 7 6 8 8 7 7 9 10 10 9 9 10 10 10 10 11 11 10 9 9 9 9 7 8 8 7 8 8
12 14 20 16 12 12 12 12 12 13 14 14 14 14 15 16 15 15 13 15 16 17 14 13 12 15 16 16 17 19 21 23 23 22 22 20 17 17 17 12 11 11 12 12 10 9 8 8 8 8 8 8 8 8 8 7 8 7 7 7 7 8 9 9 8 9 10 9 9 10 10 11 10 10 11 11 10 9 8 8 7 8 8 7 7
12 11 11 12 11 11 11 11 12 12 13 14 14 15 15 15 16 15 14 12 13 14 15 12 12 12 18 18 19 19 21 22 22 21 19 17 17 18 11 10 9 10 10 9 9 9 8 8 8 8 7 7 7 7 6 6 7 8 7 8 9 9 9 9 8 9 9 10 10 10 10 9 9 9 9 9 11 10 9 9 8 7 7 7 7
10 10 10 10 10 10 11 12 12 13 14 16 15 14 15 15 15 14 13 12 13 12 13 14 11 12 11 9 12 16 19 20 20 19 17 17 20 15 11 10 9 8 8 9 8 8 8 7 7 6 6 7 7 6 4 5 6 7 8 8 8 9 9 9 9 9 10 9 9 10 10 10 10 10 11 10 8 7 8 8 7 7 6 7 7
10 10 9 10 11 12 12 12 13 17 14 13 12 13 15 15 15 14 13 12 13 14 14 13 11 11 13 12 10 9 11 13 16 14 15 15 13 10 10 8 9 9 8 7 7 8 7 6 6 6 6 6 6 5 6 6 6 7 8 8 8 8 11 10 11 10 9 9 9 9 9 9 9 9 9 9 9 8 8 8 8 7 6 7 6
9 14 18 20 16 12 11 12 13 12 13 14 13 14 15 16 15 13 11 10 12 11 12 12 11 12 11 10 9 8 9 7 7 8 8 7 7 7 7 7 7 7 6 5 5 6 5 5 5 5 5 5 6 6 7 7 7 7 8 8 8 8 9 8 8 8 8 8 8 8 8 8 8 8 8 9 9 8 8 8 7 8 7 6 6
12 11 12 18 13 14 12 12 13 13 13 14 14 13 14 14 14 14 13 12 12 13 10 11 11 11 10 9 9 8 7 9 8 8 6 6 6 5 5 6 5 5 4 4 5 6 6 6 6 6 6 6 6 6 7 8 8 8 8 8 9 9 9 9 9 9 8 7 8 8 8 9 8 8 7 7 8 8 8 8 7 7 7 6 6
11 12 13 13 14 13 12 13 12 12 12 12 12 13 13 15 14 14 12 13 12 12 13 11 11 11 10 10 15 13 9 8 7 6 5 5 3 1 1 1 4 4 4 6 5 5 6 6 6 6 6 6 5 6 6 7 8 7 7 7 7 8 7 7 7 7 8 8 8 8 8 8 9 9 8 7 7 8 7 7 7 6 6 7 7
12 12 12 11 12 11 12 12 12 13 14 15 13 12 12 13 12 12 13 13 14 12 13 11 11 9 10 15 11 14 10 5 2 0 1 2 3 3 3 2 2 4 5 5 6 7 6 6 6 6 6 6 6 6 6 7 7 7 7 7 7 7 7 7 7 8 8 8 8 9 8 8 8 8 8 7 7 7 7 7 7 7 7 6 6
13 12 12 12 11 10 12 13 12 11 12 12 12 13 14 13 13 11 12 12 12 11 11 11 10 7 6 9 8 5 2 3 3 3 3 4 4 4 4 4 4 4 4 3 3 4 5 6 5 5 5 5 6 7 7 7 7 7 7 7 8 8 8 7 7 8 8 9 9 9 9 8 8 8 8 7 7 7 7 8 7 7 7 7 7
11 12 12 12 12 12 11 10 11 12 11 14 16 14 14 13 12 11 11 11 11 10 9 8 7 5 4 4 5 4 3 4 4 4 4 4 4 4 4 4 5 5 5 5 5 5 6 6 6 6 6 6 5 5 5 5 6 8 8 8 7 7 8 8 8 9 9 9 9 9 8 8 8 8 7 7 7 8 7 7 7 7 7 6 6
11 11 11 11 11 11 11 9 10 12 14 13 11 11 11 11 11 11 10 9 8 7 6 5 4 4 3 4 5 4 4 4 4 4 5 5 4 4 4 5 5 6 5 5 5 5 6 7 7 7 7 7 7 7 6 6 6 5 6 9 9 9 8 8 7 8 9 10 9 8 8 8 7 7 7 7 7 8 7 7 7 6 7 6 7
10 11 12 11 11 10 11 11 12 11 11 10 11 10 10 9 9 8 7 6 5 5 4 4 4 4 4 4 4 4 4 4 4 5 4 4 4 4 4 5 6 6 5 5 5 6 6 6 7 7 8 7 7 7 7 7 7 7 6 6 7 7 7 7 7 8 8 9 9 8 8 7 7 6 7 7 6 6 7 6 6 7 7 7 6
10 10 11 12 12 12 11 11 10 11 11 10 10 10 9 9 8 7 6 6 6 4 5 5 5 5 5 5 5 5 5 5 4 4 5 5 4 4 5 5 5 6 6 6 7 7 7 7 6 7 7 7 8 8 7 7 7 7 7 7 7 8 7 6 7 7 7 8 9 8 8 8 7 7 7 7 7 7 7 7 7 7 6 7 7
10 10 10 11 10 10 10 10 11 12 10 10 10 9 9 8 7 7 6 6 6 5 5 4 5 5 4 5 5 4 5 4 4 4 4 5 5 5 5 5 6 5 6 7 7 7 7 6 7 8 8 8 8 8 7 7 7 7 6 5 6 7 9 9 7 7 7 7 7 9 9 8 7 7 7 7 7 7 7 6 6 6 6 6 7
10 10 10 10 10 10 10 10 10 10 10 10 10 9 8 8 7 7 6 5 5 5 5 4 4 4 5 4 4 4 4 4 4 4 5 5 5 5 5 5 5 6 7 6 6 7 7 8 8 8 9 9 8 9 8 8 8 7 7 6 8 13 11 11 8 8 9 8 8 8 8 8 8 7 7 7 7 6 7 7 7 7 6 6 7
9 10 10 10 10 10 10 9 9 9 9 9 9 9 9 8 7 7 6 6 5 5 5 5 5 4 4 4 4 4 4 5 5 4 5 5 5 4 5 6 6 7 7 7 7 8 8 8 8 7 7 6 6 6 6 7 7 7 7 7 12 12 12 12 11 10 9 7 8 7 8 8 8 7 6 7 7 8 8 7 7 8 7 7 6
9 9 9 9 9 10 9 9 8 9 8 9 8 9 8 8 7 7 7 7 6 6 5 5 5 5 5 5 4 4 5 5 5 4 5 5 5 5 7 8 7 7 7 6 7 6 5 5 5 6 6 7 8 7 8 8 7 7 10 13 13 12 11 10 9 9 10 8 7 8 8 9 9 8 7 6 7 7 8 8 8 7 6 6 6
Wind_Direction
307 291 299 278 267 262 258 248 251 247 253 244 247 248 246 237 236 234 244 235 223 231 229 225 222 220 220 223 223 224 224 226 219 222 228 237 237 240 242 233 238 242 236 235 226 225 226 229 227 226 220 223 219 218 216 215 212 216 213 214 223 219 215 226 235 250 239 290 172 179 160 157 187 193 188 185 177 180 167 173 166 174 174 177 173
293 298 297 282 275 272 268 263 257 255 252 256 253 257 253 245 243 248 238 242 210 232 232 230 225 221 223 227 225 225 227 227 220 216 226 233 238 235 241 238 241 244 237 241 232 229 231 233 234 230 224 229 222 221 215 216 210 214 215 211 219 221 213 212 232 236 242 112 185 106 143 171 176 186 188 178 181 170 170 163 164 169 172 163 158
298 294 287 280 270 269 279 275 268 264 263 262 259 258 257 255 248 244 250 251 236 233 237 232 225 223 227 230 230 227 224 226 219 214 226 230 234 236 235 236 239 241 240 241 238 233 233 232 235 229 226 228 224 223 214 216 212 216 220 213 221 224 215 216 227 237 238 221 141 148 155 169 171 176 183 184 172 170 166 168 162 153 149 155 158
311 306 293 287 290 300 292 284 280 269 266 264 266 267 265 263 251 247 253 254 248 243 235 238 231 227 232 234 233 232 229 225 221 219 227 227 230 233 233 236 238 239 241 243 239 234 234 235 235 230 228 229 226 222 220 217 215 218 222 218 220 224 219 214 219 230 231 176 187 170 162 156 113 145 147 135 152 165 172 144 134 149 148 154 158
307 288 274 289 297 294 289 287 279 277 269 272 271 275 272 270 261 252 258 257 252 254 252 238 242 238 238 238 239 235 232 226 224 227 231 231 232 231 232 235 238 239 240 241 239 236 235 234 236 228 228 232 231 226 222 218 218 218 221 220 219 223 218 212 215 213 200 186 146 141 135 109 98 133 153 154 149 132 127 143 140 136 120 133 144
343 338 334 326 316 317 302 300 282 275 276 278 274 275 274 266 263 257 245 256 258 255 255 248 235 243 241 244 243 245 239 230 229 233 235 235 235 234 233 234 238 240 241 239 238 235 236 236 234 227 228 227 230 226 223 223 219 220 222 221 219 216 216 215 205 205 200 183 157 132 172 150 122 145 168 158 143 127 106 85 82 97 128 125 163
352 1 356 353 338 334 335 324 307 292 285 280 281 280 272 264 259 260 250 249 257 260 253 252 243 240 245 244 245 244 242 233 232 234 238 238 238 238 237 234 237 240 242 241 239 238 236 236 234 228 229 228 229 227 223 224 219 222 220 221 218 210 213 211 201 199 194 168 164 160 152 167 155 151 152 152 154 150 141 126 138 151 136 159 182
351 356 356 349 346 334 332 325 320 309 303 300 293 286 281 274 264 263 261 257 253 251 254 254 253 241 248 247 248 245 245 242 238 239 239 239 237 240 238 240 239 237 239 239 239 239 238 236 235 232 230 231 228 231 222 226 219 226 222 216 215 209 213 206 198 192 189 180 171 167 168 158 124 83 126 144 135 97 174 165 172 175 178 179 189
351 352 351 352 343 332 323 323 316 315 315 312 307 300 291 281 279 274 266 263 256 257 257 254 259 258 254 248 251 243 242 242 238 236 240 241 238 243 242 241 240 243 243 241 239 238 240 238 238 237 233 233 230 228 226 222 218 224 223 207 213 208 210 193 189 192 194 184 177 162 163 171 162 148 162 168 173 182 181 168 174 163 154 149 178
354 352 352 345 337 336 332 325 324 315 313 307 302 299 294 291 287 281 272 263 264 260 260 255 253 256 259 256 250 246 245 244 239 237 235 239 240 243 245 244 243 243 245 247 245 240 240 239 240 238 237 235 233 232 231 229 226 224 223 204 207 204 199 192 194 198 192 189 185 174 173 177 172 171 168 186 180 122 137 166 170 157 133 151 121
348 353 342 335 331 331 338 335 333 333 326 315 308 302 296 291 286 279 274 269 266 264 256 261 254 252 254 257 257 250 247 243 241 241 241 241 242 247 246 249 244 244 244 244 248 244 241 239 241 239 237 239 237 235 234 233 232 230 228 218 206 198 196 198 204 193 194 196 182 180 179 171 177 177 186 174 165 171 172 169 161 147 170 171 193
343 337 332 329 333 336 333 328 329 322 325 319 316 307 302 299 290 283 280 278 268 258 258 254 258 255 256 256 255 254 252 247 244 245 244 244 241 243 248 251 250 247 245 244 247 245 243 241 238 235 233 230 230 233 234 235 234 233 230 223 215 212 207 198 195 193 194 184 180 188 178 182 177 181 176 165 167 151 156 163 171 175 173 185 187
340 336 336 337 332 333 329 328 319 314 311 308 304 306 303 300 293 291 284 276 278 267 262 263 260 256 252 258 258 256 256 251 248 249 247 245 243 241 248 247 250 251 247 246 246 246 244 244 246 237 236 227 227 228 229 232 234 231 228 223 220 216 218 218 208 198 183 183 182 189 192 180 178 184 177 173 162 163 159 170 179 182 183 184 185
337 325 325 327 322 318 315 311 306 298 295 294 293 292 290 283 281 276 280 285 275 276 272 265 267 262 255 255 262 262 257 256 249 249 248 247 245 242 246 247 248 251 250 248 248 246 242 242 246 246 236 225 222 221 222 224 217 213 220 218 217 215 215 212 209 207 197 189 185 191 192 174 176 174 179 160 161 170 170 182 176 176 185 186 155
326 325 324 318 318 320 319 313 310 307 299 295 293 287 282 285 282 278 279 278 279 276 278 279 271 263 261 257 261 266 260 255 252 249 248 247 247 244 247 248 250 252 251 248 246 246 243 242 243 247 242 227 218 208 215 213 209 212 214 216 213 210 205 202 199 193 192 191 190 183 176 185 183 177 169 171 178 179 179 178 177 173 135 92 83
329 341 341 342 342 340 339 334 330 329 328 327 323 320 317 307 308 307 291 282 268 265 271 258 266 269 262 259 262 266 267 256 252 251 248 249 248 247 246 246 250 252 253 249 247 245 244 241 244 244 242 237 218 211 214 206 208 213 213 212 208 203 205 203 195 184 179 177 181 184 187 183 165 161 167 170 165 137 110 90 105 124 134 143 156
348 345 341 339 339 338 339 332 328 327 327 327 325 324 325 322 317 307 301 295 285 280 272 268 264 266 269 259 258 268 273 262 250 252 248 248 248 248 246 247 250 251 252 250 247 246 240 237 236 243 239 238 221 216 213 201 212 211 210 205 200 196 198 182 180 174 181 178 170 173 164 166 163 164 167 166 158 147 132 136 161 153 148 162 155
341 339 335 335 331 331 329 327 321 321 322 321 318 314 313 304 298 304 301 306 305 299 293 292 282 264 267 271 258 267 276 270 252 254 248 246 241 247 248 249 253 251 255 252 248 247 241 233 231 234 237 233 223 216 207 198 209 208 202 194 190 193 187 169 157 163 164 165 164 164 165 169 168 168 170 170 162 156 160 173 170 156 168 170 168
337 335 328 324 321 318 316 314 312 311 312 308 308 306 308 307 303 307 296 291 289 295 296 291 292 284 266 267 271 265 272 278 266 258 255 248 244 246 249 250 255 254 253 256 249 244 243 232 226 225 226 230 227 213 204 199 205 201 194 189 195 195 189 169 168 164 164 160 159 156 162 169 167 163 170 173 168 172 182 155 150 165 165 169 142
320 317 314 313 311 310 309 310 305 304 303 303 302 296 298 305 307 308 305 300 296 297 295 289 289 289 287 275 275 266 269 275 272 256 257 253 245 244 245 250 252 257 253 253 257 247 239 233 222 224 228 230 222 209 206 201 199 195 189 196 198 201 172 178 185 174 170 165 160 158 158 156 151 149 155 164 167 171 159 160 168 165 163 162 161
317 314 313 310 309 307 305 298 302 302 296 296 300 300 301 302 304 305 303 304 301 295 293 293 289 287 287 281 273 271 261 266 273 262 256 256 250 244 246 245 251 255 258 254 250 253 247 231 219 219 221 223 212 208 205 204 196 194 198 204 203 187 174 183 183 172 164 162 159 159 151 147 151 155 157 158 162 167 162 162 175 169 155 155 157
311 309 307 304 300 301 303 303 299 298 303 306 307 303 302 299 290 294 296 295 296 294 294 293 290 288 288 284 275 272 267 252 262 264 256 256 254 245 244 248 245 250 256 257 255 253 249 235 223 208 215 218 212 205 206 210 202 196 207 206 190 178 176 177 172 166 168 168 163 157 153 154 158 158 160 160 162 167 169 164 165 156 147 151 154
310 306 304 303 303 303 303 304 306 308 306 305 301 299 301 304 299 294 293 294 292 292 290 291 291 289 289 286 281 273 269 262 247 255 252 255 257 253 248 250 251 246 250 257 256 254 250 237 219 206 211 212 212 207 208 210 207 207 205 203 193 180 171 175 173 172 172 168 163 160 161 162 158 161 164 165 162 163 161 152 149 133 110 95 108
316 316 315 316 315 315 314 312 310 308 304 305 301 297 300 302 301 293 292 288 291 293 292 292 290 287 288 291 290 286 270 257 254 246 249 248 254 256 256 252 250 246 246 254 258 256 252 230 202 207 208 210 211 208 212 211 208 209 204 202 188 174 173 173 176 176 170 166 168 166 170 170 159 159 170 161 147 148 139 133 125 117 108 96 84
324 321 321 318 317 316 314 309 308 307 304 305 303 302 302 304 302 300 299 289 280 283 286 288 287 285 287 286 288 290 285 261 258 250 244 248 250 252 255 256 252 249 249 253 252 252 248 230 222 212 204 206 205 209 215 215 213 210 205 199 189 180 180 178 177 171 173 175 171 172 170 173 172 164 140 123 116 109 111 91 97 93 91 90 79
323 321 322 320 318 320 316 311 310 307 305 302 294 286 288 296 296 296 294 288 285 282 284 287 286 284 282 283 284 284 287 283 267 255 238 246 252 254 252 252 254 253 252 256 257 251 243 233 221 206 201 201 204 207 213 216 218 214 205 196 192 188 176 176 176 178 178 171 171 167 167 159 143 130 126 125 130 142 132 125 119 107 114 113 93
313 314 317 317 314 316 313 310 312 311 308 305 297 293 288 286 286 285 283 284 287 283 280 281 282 282 280 282 283 284 285 282 276 263 232 241 247 257 256 259 258 259 259 257 260 254 235 217 208 205 199 201 203 209 214 217 219 213 205 196 196 187 180 179 178 177 169 163 158 157 152 137 121 123 138 145 145 149 146 137 124 129 129 127 116
316 317 316 313 307 308 306 306 308 306 306 306 304 301 294 285 280 277 283 284 286 286 283 280 277 275 283 283 284 285 283 283 277 267 253 242 250 250 250 251 248 240 245 247 241 222 212 212 210 204 205 208 210 212 214 214 214 209 205 200 196 184 177 172 171 169 165 158 152 144 136 141 143 144 142 149 150 150 152 145 142 131 137 129 116
316 308 305 304 300 302 296 297 300 302 301 299 291 281 285 290 287 282 270 265 260 271 279 276 272 272 273 274 279 283 283 279 279 232 239 257 253 251 246 245 241 244 239 241 220 189 194 201 201 203 200 203 205 210 211 209 210 207 207 200 188 179 176 177 177 170 154 144 149 152 151 145 141 141 143 139 142 149 150 135 143 134 141 146 145
314 308 311 309 310 312 307 299 293 290 291 294 298 295 280 271 265 269 283 282 270 255 253 264 270 277 275 268 260 263 272 277 286 284 280 272 265 254 249 246 242 243 246 241 200 196 201 205 204 200 200 201 206 205 207 206 208 203 212 196 184 179 178 175 164 154 152 155 155 150 146 143 141 150 149 147 143 145 150 146 148 148 148 163 146
314 314 317 314 312 310 306 304 300 295 289 290 290 291 299 297 283 269 258 269 277 276 263 260 264 265 263 272 272 265 261 268 276 276 273 271 263 248 247 249 250 250 242 221 200 205 207 206 209 204 207 206 206 206 204 204 206 202 199 193 186 182 175 165 156 146 153 152 152 146 146 150 153 152 150 152 150 147 140 136 142 159 159 158 153
314 312 311 307 306 302 296 295 296 296 294 289 288 290 293 298 299 292 280 258 264 276 278 269 264 264 262 260 265 275 272 266 264 269 268 264 261 250 243 246 248 246 245 210 202 212 208 209 208 207 205 208 211 207 205 203 205 200 185 181 183 178 172 162 149 147 151 150 144 143 147 148 148 153 153 154 151 144 142 146 152 157 149 149 154
309 305 303 302 299 298 297 297 296 295 295 298 296 293 290 287 290 299 300 288 269 267 274 276 270 264 265 264 260 259 265 269 268 267 267 265 259 249 239 244 247 243 240 228 215 214 209 210 211 207 204 211 210 209 208 205 206 203 182 174 172 174 170 150 144 147 152 149 143 149 145 144 149 151 152 152 148 141 145 152 151 148 146 141 130
303 298 298 298 297 293 292 291 293 293 292 289 287 288 286 282 281 284 291 299 305 278 245 254 267 273 267 261 262 263 263 264 267 267 266 262 252 239 238 244 245 242 237 231 220 217 209 209 209 205 205 208 209 209 209 207 203 203 175 168 160 150 139 138 147 148 145 143 145 142 145 152 155 151 149 142 136 136 149 156 150 152 156 156 151
298 293 292 292 288 289 290 289 287 287 289 289 289 288 286 285 282 278 275 285 289 292 300 290 270 261 268 272 267 264 264 266 267 267 265 258 241 233 242 247 243 241 238 233 221 212 205 202 201 201 198 202 203 202 207 199 194 187 171 158 143 140 137 145 147 148 146 141 138 149 156 158 158 151 144 140 140 149 158 157 162 160 153 147 146
300 297 296 292 286 282 283 286 287 288 287 285 283 283 283 283 282 279 280 276 275 283 287 283 286 285 277 272 271 270 268 267 268 266 262 247 233 235 237 236 236 233 231 230 217 209 197 195 193 198 194 199 193 199 195 178 174 165 150 146 146 146 146 144 146 145 144 144 150 152 151 150 145 138 130 131 149 155 156 157 154 150 145 146 150
300 298 297 295 293 291 289 286 283 283 283 286 286 285 284 283 280 281 278 277 281 282 281 288 292 287 274 266 268 268 267 267 266 262 252 242 240 236 235 237 236 238 232 225 211 196 196 189 182 185 184 190 190 183 146 141 137 134 142 147 148 148 151 151 151 146 145 147 151 155 153 150 146 140 137 142 145 144 145 145 142 143 143 145 142
292 291 291 295 294 290 288 286 286 289 286 281 280 282 286 286 286 282 281 283 286 288 286 286 283 282 287 288 278 271 274 266 262 259 256 253 251 241 237 234 233 233 236 222 204 187 187 176 167 174 174 172 172 145 136 133 133 130 131 138 146 148 146 143 148 147 149 148 152 151 146 139 131 131 135 140 146 144 145 145 144 141 136 145 149
293 294 295 295 291 287 283 287 289 292 290 290 286 288 287 288 289 287 284 284 283 279 281 280 279 281 281 284 287 281 269 261 249 248 244 238 237 239 241 240 238 238 230 208 172 172 143 140 139 141 148 152 150 146 139 135 132 129 131 131 132 136 141 140 147 146 147 151 148 143 129 124 126 134 135 136 140 142 143 141 144 143 151 157 160
301 301 296 294 292 289 285 283 288 286 287 290 289 287 288 289 289 289 289 286 285 283 279 278 279 280 282 284 280 277 258 257 254 252 249 240 234 238 241 239 231 210 164 136 142 138 139 137 142 142 146 145 149 145 146 139 139 138 138 143 143 146 151 151 152 154 153 142 131 122 122 127 128 129 130 135 138 140 139 141 145 144 147 147 144
302 299 298 296 294 295 292 288 283 282 285 285 285 284 280 281 282 283 283 283 282 283 281 279 280 280 282 281 278 271 261 261 262 253 242 224 184 181 267 179 142 131 138 138 139 139 137 137 135 138 135 136 138 136 137 132 129 135 137 139 137 140 143 143 141 130 126 123 125 124 124 126 132 136 135 136 134 133 136 137 141 144 144 144 146
300 300 298 296 296 289 286 286 284 285 286 285 280 276 278 282 282 281 285 284 285 282 281 281 281 282 286 284 273 262 259 265 281 282 47 71 76 73 59 43 57 117 131 138 143 142 138 134 134 137 138 135 131 130 128 129 133 131 135 134 133 130 129 133 129 128 128 126 122 124 126 130 132 127 128 131 135 135 136 142 145 142 139 140 142
298 294 294 292 292 289 288 286 284 281 280 279 278 285 286 286 284 283 281 280 279 281 282 284 286 292 282 282 278 284 27 33 45 47 47 51 50 47 42 23 22 33 54 64 72 105 117 120 113 111 119 129 137 142 145 140 138 132 132 135 135 135 130 125 122 120 117 118 121 122 127 131 130 129 131 133 134 134 141 137 136 138 140 139 142
297 296 292 290 288 285 281 278 280 279 279 289 293 293 290 289 286 283 286 286 286 288 288 289 291 301 324 1 19 24 22 35 39 47 47 44 49 42 29 38 34 39 42 45 50 65 87 90 88 75 66 64 65 71 81 103 123 132 130 126 123 124 126 129 132 134 133 126 125 125 127 126 126 127 129 134 134 134 132 133 135 136 137 137 139
296 295 295 294 289 283 281 279 282 293 298 298 295 293 293 294 294 295 297 296 301 302 304 317 340 348 0 8 17 25 20 26 42 44 54 46 31 29 28 34 35 44 43 43 42 62 81 88 88 88 84 72 63 68 77 74 79 96 117 128 132 135 139 138 134 127 126 125 126 124 126 129 133 133 132 139 139 137 138 143 139 129 127 134 148
299 298 292 288 287 292 298 301 302 300 299 300 301 305 306 306 305 308 307 311 314 324 339 354 359 7 12 12 25 33 31 36 30 37 36 26 23 24 15 32 45 49 38 36 43 58 65 77 89 92 90 84 79 68 69 67 68 69 77 84 101 111 113 114 118 118 122 126 129 132 132 129 129 137 138 139 136 133 133 131 138 146 150 152 154
308 307 309 305 305 303 306 306 307 306 306 305 307 308 306 307 310 311 312 329 343 359 1 360 7 9 8 9 11 16 28 27 20 29 32 32 32 34 37 45 53 54 52 43 47 55 61 68 75 86 88 87 83 79 75 68 69 65 63 78 90 97 100 109 110 116 119 124 128 126 130 129 129 123 125 123 125 128 128 140 147 142 137 143 146
314 314 312 310 308 312 313 316 315 315 314 313 314 311 309 313 316 325 336 345 359 2 2 10 16 18 17 14 12 18 35 40 43 39 39 39 43 47 46 45 61 54 63 58 50 52 57 67 76 81 82 80 81 78 79 82 79 79 71 66 83 98 104 105 97 95 103 109 116 124 128 128 131 130 134 136 135 136 129 127 119 118 127 129 133
322 319 316 318 319 322 321 321 323 324 325 324 320 320 323 323 327 335 342 351 355 359 1 11 10 20 32 28 21 24 27 27 43 49 41 54 53 54 46 58 58 61 70 66 62 61 63 67 71 75 81 80 79 82 81 79 81 76 81 72 88 93 92 96 101 104 105 104 104 105 109 115 124 128 129 126 127 124 118 120 126 128 125 130 135
327 325 323 320 319 319 321 321 326 328 327 325 327 328 329 332 339 343 344 346 355 2 8 4 13 11 11 18 26 28 29 36 45 37 38 50 52 55 62 73 69 71 68 69 70 73 73 73 64 57 61 60 61 62 71 69 67 80 83 91 95 91 89 91 92 103 105 103 106 111 114 115 115 119 120 121 123 122 124 133 137 138 140 142 146
331 331 329 326 326 324 325 329 331 336 334 331 336 335 333 337 340 344 349 349 356 356 359 5 8 8 13 16 19 24 41 47 44 41 47 46 41 56 69 75 69 72 69 61 70 57 49 52 53 60 62 66 65 75 76 78 81 88 97 94 91 88 87 93 92 88 93 103 108 112 116 121 123 120 121 120 123 125 135 132 137 140 145 148 147